Weather History for Buffalo, WY

Change the Weather History Date:

Friday, July 12, 2013

  Actual Average Record
Temperature  
Mean Temperature 72 °F 71 °F  
Max Temperature 82 °F 85 °F 99 °F (2002)
Min Temperature 62 °F 57 °F 41 °F (2008)
Degree Days  
Heating Degree Days 0 1  
Month to date heating degree days 0 15  
Since 1 June heating degree days 100 178  
Since 1 July heating degree days 0 15  
Cooling Degree Days 7 6  
Month to date cooling degree days 107 63  
Year to date cooling degree days 194 121  
Since 1 June cooling degree days 184 114  
Growing Degree Days 22 (Base 50)    
Moisture  
Dew Point 50 °F    
Average Humidity 50    
Maximum Humidity 67    
Minimum Humidity 32    
Precipitation  
Precipitation T in 0.06 in 0.01 in (2009)
Month to date precipitation T 0.63  
Year to date precipitation 4.08 8.43  
Sea Level Pressure  
Sea Level Pressure 29.83 in    
Wind  
Wind Speed 9 mph (North)    
Max Wind Speed 21 mph    
Max Gust Speed 26 mph    
Visibility 10 miles    
Events Rain    
T = Trace of Precipitation, MM = Missing Value Source: NWS Daily Summary

Daily Weather History Graph

Daily Weather History Graph

Search for Another Location

Airport:

Trip Planner

Search our weather history database for the weather conditions in past years. The results will help you decide how hot, cold, wet, or windy it might be!

Date:

Astronomy

Jul. 12, 2013 Rise Set
Actual Time 5:34 AM MDT 8:50 PM MDT
Civil Twilight 4:58 AM MDT 9:25 PM MDT
Nautical Twilight 4:12 AM MDT 10:11 PM MDT
Astronomical Twilight 3:15 AM MDT 11:08 PM MDT
Moon 10:05 AM MDT (7/12) 10:49 PM MDT (7/12)
Length of Visible Light 16h 27m
Length of Day
15h 15m
Waxing Crescent, 18% of the Moon is Illuminated
Jul 12
Waxing Crescent
Jul 15
First Quarter
Jul 22
Full
Jul 29
Last Quarter
Aug 6
New

Hourly Weather History & Observations

Time (MDT) Temp. Dew Point Humidity Pressure Visibility Wind Dir Wind Speed Gust Speed Precip Events Conditions
12:53 AM 75.9 °F 46.9 °F 36% 29.73 in 10.0 mi NNW 17.3 mph 26.5 mph N/A   Partly Cloudy
1:53 AM 75.0 °F 45.0 °F 34% 29.71 in 10.0 mi NW 13.8 mph - N/A   Scattered Clouds
2:53 AM 73.9 °F 44.1 °F 34% 29.72 in 10.0 mi NW 9.2 mph - N/A   Mostly Cloudy
3:53 AM 70.0 °F 48.0 °F 46% 29.75 in 10.0 mi North 10.4 mph - N/A   Overcast
4:53 AM 66.9 °F 50.0 °F 54% 29.77 in 10.0 mi NNW 12.7 mph - 0.00 in Rain Light Rain
5:53 AM 64.0 °F 54.0 °F 70% 29.80 in 10.0 mi NNW 9.2 mph - 0.00 in Rain Light Rain
6:53 AM 64.9 °F 53.1 °F 65% 29.82 in 10.0 mi NW 10.4 mph - 0.00 in   Overcast
7:53 AM 66.9 °F 53.1 °F 61% 29.83 in 10.0 mi NW 8.1 mph - N/A   Overcast
8:53 AM 68.0 °F 52.0 °F 56% 29.84 in 10.0 mi NW 5.8 mph - N/A   Overcast
9:53 AM 70.0 °F 51.1 °F 51% 29.86 in 10.0 mi North 3.5 mph - N/A   Overcast
10:53 AM 71.1 °F 50.0 °F 47% 29.87 in 10.0 mi North 6.9 mph - N/A   Overcast
11:53 AM 72.0 °F 48.0 °F 43% 29.88 in 10.0 mi NNW 4.6 mph - N/A   Overcast
12:53 PM 75.0 °F 48.0 °F 38% 29.87 in 10.0 mi Variable 3.5 mph - N/A   Overcast
1:53 PM 75.9 °F 46.9 °F 36% 29.86 in 10.0 mi Variable 3.5 mph - N/A   Mostly Cloudy
2:53 PM 73.9 °F 48.0 °F 40% 29.87 in 10.0 mi North 8.1 mph - N/A   Overcast
3:53 PM 79.0 °F 46.9 °F 32% 29.85 in 10.0 mi East 4.6 mph - 0.00 in   Clear
4:53 PM 81.0 °F 48.0 °F 31% 29.84 in 10.0 mi ESE 12.7 mph - N/A   Clear
5:53 PM 79.0 °F 51.1 °F 38% 29.85 in 10.0 mi East 10.4 mph - N/A   Clear
6:53 PM 79.0 °F 53.1 °F 40% 29.85 in 10.0 mi SE 10.4 mph - N/A   Clear
7:53 PM 73.9 °F 54.0 °F 50% 29.86 in 10.0 mi SSE 15.0 mph - N/A   Clear
8:53 PM 72.0 °F 52.0 °F 49% 29.87 in 10.0 mi SSE 12.7 mph - N/A   Clear
9:53 PM 68.0 °F 52.0 °F 56% 29.89 in 10.0 mi SE 6.9 mph - N/A   Clear
10:53 PM 66.0 °F 52.0 °F 60% 29.88 in 10.0 mi SSE 6.9 mph - N/A   Clear
11:53 PM 66.9 °F 52.0 °F 59% 29.87 in 10.0 mi SSE 8.1 mph - N/A   Clear